Location: *
(58.7167°N, 26.1833°E)
Time: 08:13:20
(UTC+00:00)

NOSS 3-1 (C) - Pass Details

Date: 25 August 2019
Orbit: 775 x 1433 km, 63.4° (Epoch: 01 September)

Event Time Altitude Azimuth Distance (km) Brightness Sun altitude
Rises 18:07:22 0° 302° (WNW) 3,774 9.7 -4.4°
Reaches altitude 10° 18:09:49 10° 301° (WNW) 2,908 8.0 -4.7°
Maximum altitude 18:16:50 81° 217° (SW) 1,223 4.1 -5.5°
Drops below altitude 10° 18:25:02 10° 132° (SE) 3,369 5.6 -6.4°
Enters shadow 18:25:51 - 131° (SE) 3,653 5.8 -6.5°
